Regional Weather Roundup
Issued by NWS

Home | Current Version | Previous Version | Text Only | Print | Product List | Glossary On
Versions: 1 2 3 4 5 6 7 8 9 10 11 12 13 14 15 16 17 18 19 20 21 22 23 24 25 26 27 28 29 30 31 32 33 34 35 36 37 38 39 40 41 42 43 44 45 46 47 48 49 50
000
ASUS43 KMPX 211710
RWRMN
WEATHER ROUNDUP FOR MINNESOTA
NATIONAL WEATHER SERVICE TWIN CITIES/CHANHASSEN MN
1200 PM CDT SAT SEP 21 2019


NOTE: "FAIR" INDICATES FEW OR NO CLOUDS BELOW 12,000 FEET WITH NO
SIGNIFICANT WEATHER AND/OR OBSTRUCTIONS TO VISIBILITY. N/A MEANS
CURRENT SKY AND/OR WEATHER CONDITIONS ARE NOT AVAILABLE.

MNZ060>063-068>070-211800-
   Twin Cities Metro

CITY           SKY/WX    TMP DP  RH WIND       PRES   REMARKS
TWIN CITIES    CLOUDY    76  69  79 S20G35    29.76F
ST PAUL        CLOUDY    74  69  85 S14G22    29.77F
CRYSTAL        CLOUDY    76  69  79 S17G26    29.74R
BLAINE         CLOUDY    75  72  88 S18G31    29.75F
LAKEVILLE      CLOUDY    75  73  94 S9G17     29.78F
EDEN PRAIRIE   CLOUDY    76  69  79 S17G32    29.74S
SOUTH ST PAUL  FAIR      76  70  83 S17G26    29.76F
LAKE ELMO      CLOUDY    73  70  88 S13G23    29.78F
$$
MNZ001>005-007-008-013>017-022>024-027-028-211800-
   Northwest Minnesota

CITY           SKY/WX    TMP DP  RH WIND       PRES   REMARKS
BEMIDJI        CLOUDY    72  67  84 S12G21    29.63S
HALLOCK        DRIZZLE   64  64 100 CALM      29.60S
WARROAD        CLOUDY    64  61  88 W3        29.60S FOG
THIEF RVR FALL LGT RAIN  64  63  94 NW5       29.63F
CROOKSTON      CLOUDY    64  64 100 N5        29.63S FOG
FOSSTON        PTSUNNY   72  66  83 SW10G16   29.63S
DETROIT LAKES  PTSUNNY   73  68  83 SW14      29.66R
MOORHEAD       MOSUNNY   73  64  73 SW17G25   29.63S
PARK RAPIDS    PTSUNNY   73  67  81 S14G22    29.65F
$$
MNZ006-009>011-018-025>026-211800-
   North Central Minnesota

CITY           SKY/WX    TMP DP  RH WIND       PRES   REMARKS
BAUDETTE       PTSUNNY   68  65  90 VRB5      29.58R
FLAG ISLAND      N/A     64  61  88 CALM      29.58R
INTL FALLS     PTSUNNY   73  67  81 S10G24    29.60S
WASKISH        PTSUNNY   73  66  78 SW9G18    29.61S
BIG FORK       PTSUNNY   70  66  88 S10G18    29.71R
LONGVILLE      RAIN      70  66  88 S9G18     29.68S
GRAND RAPIDS   CLOUDY    69  66  90 S12G17    29.71S
CRANE LAKE     CLOUDY    70  66  88 S7G17     29.67F
ORR            CLOUDY    72  64  78 S13G18    29.65R
COOK           CLOUDY    72  66  83 S12G18    29.68R
WALKER         CLOUDY    70  68  93 S13G18    29.66S
$$
MNZ012-019>021-037-211800-
   Northeast Minnesota

CITY           SKY/WX    TMP DP  RH WIND       PRES   REMARKS
DULUTH         LGT RAIN  67  61  81 W17       29.77F
ELY            CLOUDY    70  68  94 S12       29.70F
HIBBING        LGT RAIN  69  66  90 VRB7      29.70R
EVELETH        CLOUDY    70  68  94 S13G25    29.71S
DULUTH HARBOR  TSTM      61  55  82 S8        29.78F
TWO HARBORS    CLOUDY    64  59  82 S9        29.77S HAZE
GRAND MARAIS     N/A     62  61  96 NE8       29.78F
G MARAIS ARPRT DRZL/FOG  64  61  88 S8        29.81S VSB 1/2
$$
MNZ029>031-032-039>041-046>048-054>057-064-211800-
   West Central Minnesota

CITY           SKY/WX    TMP DP  RH WIND       PRES   REMARKS
FERGUS FALLS   PTSUNNY   75  66  73 SW15      29.65S
MORRIS         SUNNY     79  66  65 SW12      29.62S
ELBOW LAKE     FAIR      76  68  77 W13       29.67S
WADENA         PTSUNNY   75  68  78 S14G21    29.65F
GLENWOOD       FAIR      73  70  88 S13       29.70S
APPLETON       PTSUNNY   81  68  65 SW9       29.66F
BENSON         CLOUDY    73  70  88 NW3       29.68S
ORTONVILLE     SUNNY     79  64  61 SW15G21   29.67S
MADISON        MOSUNNY   82  72  69 SW16G22   29.67S
WILLMAR        FAIR      77  72  83 S6        29.72F
$$
MNZ033>034-036-042>043-049>051-058-059-211800-
   Central Minnesota

CITY           SKY/WX    TMP DP  RH WIND       PRES   REMARKS
ST CLOUD       CLOUDY    73  69  87 S13       29.73S
PAYNESVILLE    CLOUDY    73  71  96 S8        29.71F
AITKIN         PTSUNNY   66  64  94 S13G21    29.71R
PINE RIVER     CLOUDY    68  64  88 S9        29.72F
BRAINERD       CLOUDY    73  67  81 S10G20    29.71S
STAPLES        CLOUDY    72  66  83 S10G17    29.68S
LONG PRAIRIE   CLOUDY    72  68  88 S13G20    29.70F
LITTLE FALLS   CLOUDY    70  70 100 S10       29.71F
CAMP RIPLEY    CLOUDY    71  69  91 S12       29.71S
LITCHFIELD     PTSUNNY   75  75 100 S6        29.72F
BUFFALO        CLOUDY    74  68  81 MISG      29.76S
MAPLE LAKE       N/A     74  71  91 CALM      29.75S
HUTCHINSON     PTSUNNY   77  72  86 S12G22    29.73F
$$
MNZ037-044-045-052-053-211800-
   East Central Minnesota

CITY           SKY/WX    TMP DP  RH WIND       PRES   REMARKS
PRINCETON      CLOUDY    73  72  94 SE8       29.75S
MORA           DRIZZLE   70  68  94 S7        29.79R
CAMBRIDGE      CLOUDY    73  64  73 S8        29.77R
MOOSE LAKE     FAIR      66  63  88 S5        29.73F
HINCKLEY       FAIR      64  64 100 SE7       29.77R
CLOQUET        TSTM      64  61  88 E3        29.74F
MCGREGOR       PTSUNNY   70  64  83 SW15G25   29.74R
$$
MNZ071>073-080-081-089-090-097-098-211800-
   Southwest Minnesota

CITY           SKY/WX    TMP DP  RH WIND       PRES   REMARKS
MONTEVIDEO     PTSUNNY   79  66  65 SW18G25   29.68S
GRANITE FALLS  PTSUNNY   80  72  75 S14G24    29.71R
CANBY          MOSUNNY   80  68  66 SW13G24   29.70S
MARSHALL       PTSUNNY   80  71  74 SW21G26   29.70R
REDWOOD FALLS  PTSUNNY   79  71  76 S20G32    29.70F
OLIVIA         CLOUDY    77  70  78 S15G25    29.70R
PIPESTONE      MOSUNNY   77  72  83 W15G21    29.75S
WORTHINGTON    CLOUDY    79  70  73 S20G28    29.78F
JACKSON        CLOUDY    77  68  73 S18G25    29.80S
TRACY          SUNNY     79  72  78 SW21G29   29.72F
$$
MNZ065>067-074>077-082>085-091>093-211800-
   South Central Minnesota

CITY           SKY/WX    TMP DP  RH WIND       PRES   REMARKS
MANKATO        CLOUDY    77  72  84 S15G25    29.76F
NEW ULM        PTSUNNY   75  70  83 S16       29.74S
FAIRMONT       CLOUDY    76  70  82 S18G24    29.79S
GLENCOE        CLOUDY    76  71  83 S14G20    29.73F
OWATONNA       FAIR      73  70  88 S17       29.81F
WASECA         CLOUDY    73  70  88 S15G22    29.81F
ALBERT LEA     CLOUDY    73  72  94 S10       29.83F
$$
MNZ078>079-086>088-094>096-211800-
   Southeast Minnesota

CITY           SKY/WX    TMP DP  RH WIND       PRES   REMARKS
ROCHESTER      CLOUDY    73  69  87 S17G29    29.86F
RED WING       CLOUDY    75  66  73 S9        29.80F
STANTON        CLOUDY    74  69  84 S15G22    29.78F
DODGE CENTER   CLOUDY    72  70  94 S18G28    29.84F
WINONA         CLOUDY    73  68  83 S5        29.88S
AUSTIN         CLOUDY    75  66  73 S16       29.85F
PRESTON        CLOUDY    70  67  92 S14       29.90F FOG
$$
ABBREVIATIONS USED IN REMARKS
   TC - TEMPERATURES IN CELSIUS
  WCI - WIND CHILL INDEX
   HX - HEAT INDEX
  VSB - VISIBILITY
$$



USA.gov is the U.S. government's official web portal to all federal, state and local government web resources and services.